TimeIST,TemperatureF,Dew PointF,Humidity,Sea Level PressureIn,VisibilityMPH,Wind Direction,Wind SpeedMPH,Gust SpeedMPH,PrecipitationIn,Events,Conditions,WindDirDegrees,DateUTC
12:20 AM,59.0,39.2,48,29.77,-9999.0,Variable,3.5,-,N/A,,Clear,0,2013-03-08 22:20:00
12:50 AM,57.2,39.2,51,29.77,-9999.0,Variable,2.3,-,N/A,,Clear,0,2013-03-08 22:50:00
1:20 AM,60.8,37.4,42,29.77,-9999.0,SE,4.6,-,N/A,,Clear,130,2013-03-08 23:20:00
1:50 AM,59.0,37.4,45,29.77,-9999.0,Variable,2.3,-,N/A,,Clear,0,2013-03-08 23:50:00
2:00 AM,60,38,31,29.79,6,,2.3,,,,,,2013-03-09 00:00:00
2:20 AM,59.0,39.2,48,29.77,-9999.0,South,4.6,-,N/A,,Clear,170,2013-03-09 00:20:00
2:50 AM,57.2,46.4,67,29.77,-9999.0,SSW,5.8,-,N/A,,Clear,200,2013-03-09 00:50:00
3:20 AM,59.0,50.0,72,29.80,-9999.0,South,5.8,-,N/A,,Clear,190,2013-03-09 01:20:00
3:50 AM,59.0,51.8,77,29.80,-9999.0,South,9.2,-,N/A,,Clear,190,2013-03-09 01:50:00
4:20 AM,57.2,51.8,82,29.80,-9999.0,South,6.9,-,N/A,,Clear,180,2013-03-09 02:20:00
4:50 AM,57.2,53.6,88,29.83,-9999.0,South,9.2,-,N/A,,Clear,180,2013-03-09 02:50:00
5:20 AM,57.2,53.6,88,29.83,6.2,South,9.2,-,N/A,,Partly Cloudy,180,2013-03-09 03:20:00
5:50 AM,59.0,55.4,88,29.86,6.2,South,9.2,-,N/A,,Mostly Cloudy,190,2013-03-09 03:50:00
6:20 AM,59.0,55.4,88,29.86,5.0,South,9.2,-,N/A,,Scattered Clouds,190,2013-03-09 04:20:00
6:50 AM,59.0,55.4,88,29.86,5.0,South,8.1,-,N/A,,Scattered Clouds,190,2013-03-09 04:50:00
7:20 AM,59.0,55.4,88,29.89,5.0,South,6.9,-,N/A,,Scattered Clouds,180,2013-03-09 05:20:00
7:50 AM,60.8,55.4,82,29.89,5.0,South,8.1,-,N/A,,Scattered Clouds,180,2013-03-09 05:50:00
8:00 AM,60,56,81,29.89,6,South,8.1,,,,,180,2013-03-09 06:00:00
8:20 AM,62.6,55.4,77,29.89,5.6,South,6.9,-,N/A,,Mostly Cloudy,190,2013-03-09 06:20:00
8:50 AM,64.4,55.4,73,29.92,6.2,SW,4.6,-,N/A,,Mostly Cloudy,220,2013-03-09 06:50:00
9:20 AM,66.2,55.4,68,29.92,6.2,West,6.9,-,N/A,,Scattered Clouds,260,2013-03-09 07:20:00
9:50 AM,66.2,53.6,64,29.92,6.2,West,6.9,-,N/A,,Scattered Clouds,280,2013-03-09 07:50:00
10:20 AM,68.0,53.6,60,29.92,6.2,West,6.9,-,N/A,,Scattered Clouds,280,2013-03-09 08:20:00
10:50 AM,68.0,51.8,56,29.92,6.2,WNW,6.9,-,N/A,,Scattered Clouds,290,2013-03-09 08:50:00
11:20 AM,69.8,51.8,53,29.92,6.2,West,9.2,-,N/A,,Partly Cloudy,280,2013-03-09 09:20:00
11:50 AM,69.8,50.0,49,29.92,6.2,West,8.1,-,N/A,,Partly Cloudy,280,2013-03-09 09:50:00
12:20 PM,69.8,48.2,46,29.92,-9999.0,WNW,10.4,-,N/A,,Clear,290,2013-03-09 10:20:00
12:50 PM,69.8,44.6,40,29.89,-9999.0,WNW,11.5,-,N/A,,Clear,300,2013-03-09 10:50:00
1:20 PM,69.8,46.4,43,29.89,-9999.0,WNW,12.7,-,N/A,,Clear,290,2013-03-09 11:20:00
1:50 PM,69.8,48.2,46,29.89,-9999.0,WNW,12.7,-,N/A,,Clear,300,2013-03-09 11:50:00
2:00 PM,69,47,35,29.91,6,WNW,12.7,,,,,300,2013-03-09 12:00:00
2:20 PM,68.0,50.0,52,29.92,-9999.0,WNW,13.8,-,N/A,,Clear,290,2013-03-09 12:20:00
2:50 PM,69.8,48.2,46,29.92,6.2,West,12.7,-,N/A,,Partly Cloudy,280,2013-03-09 12:50:00
3:20 PM,68.0,51.8,56,29.92,-9999.0,West,13.8,-,N/A,,Clear,280,2013-03-09 13:20:00
3:50 PM,66.2,51.8,60,29.92,-9999.0,West,12.7,-,N/A,,Clear,280,2013-03-09 13:50:00
4:20 PM,66.2,51.8,60,29.95,6.2,WNW,11.5,-,N/A,,Partly Cloudy,290,2013-03-09 14:20:00
4:50 PM,66.2,51.8,60,29.95,6.2,WNW,11.5,-,N/A,,Partly Cloudy,290,2013-03-09 14:50:00
5:20 PM,64.4,51.8,64,29.95,6.2,WNW,10.4,-,N/A,,Partly Cloudy,290,2013-03-09 15:20:00
5:50 PM,62.6,51.8,68,29.95,6.2,WNW,6.9,-,N/A,,Partly Cloudy,290,2013-03-09 15:50:00
6:20 PM,62.6,50.0,63,29.98,6.2,WNW,5.8,-,N/A,,Partly Cloudy,300,2013-03-09 16:20:00
6:50 PM,62.6,50.0,63,29.98,-9999.0,Variable,3.5,-,N/A,,Clear,0,2013-03-09 16:50:00
7:50 PM,60.8,50.0,68,29.98,-9999.0,Variable,1.2,-,N/A,,Clear,0,2013-03-09 17:50:00
8:00 PM,61,49,56,29.99,6,,1.2,,,,,,2013-03-09 18:00:00
8:20 PM,60.8,50.0,68,29.98,-9999.0,Variable,2.3,-,N/A,,Clear,0,2013-03-09 18:20:00
8:50 PM,59.0,50.0,72,30.01,-9999.0,Variable,1.2,-,N/A,,Clear,0,2013-03-09 18:50:00
9:20 PM,59.0,50.0,72,30.01,-9999.0,Variable,2.3,-,N/A,,Clear,0,2013-03-09 19:20:00
9:50 PM,59.0,50.0,72,30.01,-9999.0,Calm,Calm,-,N/A,,Clear,0,2013-03-09 19:50:00
10:20 PM,57.2,50.0,77,30.01,-9999.0,Variable,3.5,-,N/A,,Clear,0,2013-03-09 20:20:00
10:50 PM,57.2,50.0,77,30.01,-9999.0,SE,5.8,-,N/A,,Clear,130,2013-03-09 20:50:00
11:20 PM,57.2,50.0,77,30.01,-9999.0,SE,4.6,-,N/A,,Clear,140,2013-03-09 21:20:00
11:50 PM,55.4,50.0,82,30.01,-9999.0,Variable,2.3,-,N/A,,Clear,0,2013-03-09 21:50:00